This demonstration page uses our WeatherBlox Daily Observations layout. Learn more.

Left ArrowRight Arrow

Hourly Observations for February 17, 2016

Temp ( °F °C ) Dew Point ( °F °C ) Humidity (%) Winds ( mph kmh ) Pressure ( in mb ) Visibility ( mi km ) Precip ( " mm )
12:54 am 00:54 Cloudy 34 1.1 31 -0.6 89 89 S 7 11 30.07 1018 7 11 0.00 0.00
1:54 am 01:54 Mostly Cloudy 33 0.6 30 -1.1 89 89 SE 6 9 30.07 1018 7 11 0.00 0.00
2:54 am 02:54 Mostly Clear 33 0.6 29 -1.7 85 85 ESE 3 6 30.09 1019 8 13 0.00 0.00
3:54 am 03:54 Mostly Cloudy 32 0 29 -1.7 88 88 ESE 6 9 30.08 1019 7 11 0.00 0.00
4:54 am 04:54 Clear 28 -2.2 26 -3.3 92 92 SSE 6 9 30.09 1019 7 11 0.00 0.00
5:54 am 05:54 Clear 31 -0.6 27 -2.8 85 85 SSE 9 15 30.10 1019 7 11 0.00 0.00
6:54 am 06:54 Clear 28 -2.2 26 -3.3 92 92 S 5 7 30.12 1020 7 11 0.00 0.00
7:54 am 07:54 Sunny with Mist and Fog 28 -2.2 26 -3.3 92 92 SSE 6 9 30.13 1020 6 10 0.00 0.00
8:54 am 08:54 Sunny with Mist and Fog 33 0.6 30 -1.1 89 89 S 8 13 30.13 1020 6 10 0.00 0.00
9:54 am 09:54 Sunny 37 2.8 32 0 82 82 SSE 6 9 30.14 1021 8 13 0.00 0.00
10:54 am 10:54 Sunny 41 5 33 0.6 73 73 SSW 5 7 30.13 1020 10 16 0.00 0.00
11:54 am 11:54 Sunny 44 6.7 33 0.6 65 65 Calm 30.14 1021 10 16 0.00 0.00
12:54 pm 12:54 Mostly Sunny 48 8.9 34 1.1 58 58 Calm 30.11 1020 10 16 0.00 0.00
1:54 pm 13:54 Sunny 50 10 35 1.7 57 57 SE 3 6 30.10 1019 10 16 0.00 0.00
2:54 pm 14:54 Sunny 51 10.6 37 2.8 59 59 SSE 5 7 30.09 1019 10 16 0.00 0.00
3:54 pm 15:54 Sunny 55 12.8 38 3.3 53 53 Calm 30.08 1019 10 16 0.00 0.00
4:54 pm 16:54 Sunny 51 10.6 37 2.8 59 59 N 3 6 30.07 1018 10 16 0.00 0.00
5:54 pm 17:54 Sunny 46 7.8 37 2.8 71 71 Calm 30.07 1018 9 14 0.00 0.00
6:54 pm 18:54 Clear 41 5 35 1.7 79 79 Calm 30.09 1019 10 16 0.00 0.00
7:54 pm 19:54 Clear 37 2.8 32 0 82 82 ENE 5 7 30.09 1019 10 16 0.00 0.00
8:54 pm 20:54 Clear 39 3.9 34 1.1 82 82 E 3 6 30.06 1018 10 16 0.00 0.00
9:54 pm 21:54 Clear 41 5 34 1.1 76 76 Calm 30.05 1018 10 16 0.00 0.00
10:54 pm 22:54 Clear 42 5.6 33 0.6 71 71 E 5 7 30.02 1017 10 16 0.00 0.00
11:54 pm 23:54 Clear 41 5 33 0.6 73 73 ESE 8 13 29.99 1016 10 16 0.00 0.00

Powered by AerisWeather